Weather History for Crestview, FL

Change the Weather History Date:

Saturday, May 3, 2014

  Actual Average Record
Temperature  
Mean Temperature 67 °F -  
Max Temperature 79 °F - - ()
Min Temperature 55 °F - - ()
Cooling Degree Days 2    
Growing Degree Days 17 (Base 50)    
Moisture  
Dew Point 49 °F    
Average Humidity 57    
Maximum Humidity 97    
Minimum Humidity 27    
Precipitation  
Precipitation 0.00 in - - ()
Sea Level Pressure  
Sea Level Pressure 30.05 in    
Wind  
Wind Speed 4 mph (NNW)    
Max Wind Speed 13 mph    
Max Gust Speed 22 mph    
Visibility 10 miles    
Events      
T = Trace of Precipitation, MM = Missing Value Source: NWS Daily Summary

Daily Weather History Graph

Daily Weather History Graph

Search for Another Location

Airport:

Trip Planner

Search our weather history database for the weather conditions in past years. The results will help you decide how hot, cold, wet, or windy it might be!

Date:

Astronomy

May. 03, 2014 Rise Set
Actual Time 6:00 AM CDT 7:25 PM CDT
Civil Twilight 5:34 AM CDT 7:51 PM CDT
Nautical Twilight 5:04 AM CDT 8:22 PM CDT
Astronomical Twilight 4:32 AM CDT 8:54 PM CDT
Moon 9:33 AM CDT (5/3) 11:29 PM CDT (5/3)
Length of Visible Light 14h 16m
Length of Day
13h 25m
Waxing Crescent, 20% of the Moon is Illuminated
May 3
Waxing Crescent
May 6
First Quarter
May 14
Full
May 21
Last Quarter
May 28
New

Hourly Weather History & Observations

Time (CDT) Temp. Dew Point Humidity Pressure Visibility Wind Dir Wind Speed Gust Speed Precip Events Conditions
12:58 AM 60.6 °F 57.4 °F 89% 29.98 in 10.0 mi NNW 2.3 mph - N/A   Mostly Cloudy
1:58 AM 59.5 °F 58.1 °F 95% 29.98 in 10.0 mi NW 2.3 mph - N/A   Mostly Cloudy
2:58 AM 59.4 °F 55.6 °F 87% 30.00 in 10.0 mi NW 2.3 mph - N/A   Overcast
3:58 AM 59.0 °F 55.4 °F 88% 30.01 in 10.0 mi NW 2.3 mph - N/A   Scattered Clouds
4:58 AM 58.5 °F 54.3 °F 86% 30.00 in 10.0 mi NW 4.6 mph - N/A   Mostly Cloudy
5:58 AM 55.0 °F 53.4 °F 94% 30.01 in 10.0 mi NW 2.3 mph - N/A   Scattered Clouds
6:58 AM 55.2 °F 54.5 °F 97% 30.03 in 10.0 mi Calm Calm - N/A   Clear
7:58 AM 62.2 °F 50.0 °F 64% 30.06 in 10.0 mi North 4.6 mph - N/A   Clear
8:58 AM 67.3 °F 48.6 °F 51% 30.08 in 10.0 mi NNE 4.6 mph - N/A   Clear
9:58 AM 71.4 °F 45.5 °F 39% 30.09 in 10.0 mi North 8.1 mph - N/A   Clear
10:58 AM 74.1 °F 43.9 °F 34% 30.09 in 10.0 mi North 9.2 mph - N/A   Clear
11:58 AM 75.9 °F 43.0 °F 31% 30.09 in 10.0 mi NNW 12.7 mph 21.9 mph N/A   Clear
12:58 PM 76.6 °F 42.4 °F 29% 30.07 in 10.0 mi North 12.7 mph 21.9 mph N/A   Mostly Cloudy
1:58 PM 78.1 °F 42.6 °F 28% 30.06 in 10.0 mi NNW 10.4 mph - N/A   Clear
2:58 PM 79.5 °F 42.8 °F 27% 30.04 in 10.0 mi North 9.2 mph - N/A   Clear
3:58 PM 79.3 °F 43.2 °F 28% 30.02 in 10.0 mi Calm Calm - N/A   Clear
4:58 PM 79.3 °F 43.2 °F 28% 30.02 in 10.0 mi NW 8.1 mph - N/A   Clear
5:58 PM 78.4 °F 44.6 °F 30% 30.02 in 10.0 mi WNW 8.1 mph - N/A   Clear
6:58 PM 75.6 °F 46.2 °F 35% 30.04 in 10.0 mi NW 4.6 mph - N/A   Clear
7:58 PM 67.1 °F 49.1 °F 52% 30.06 in 10.0 mi Calm Calm - N/A   Clear
8:58 PM 62.1 °F 50.7 °F 66% 30.08 in 10.0 mi Calm Calm - N/A   Clear
9:58 PM 60.1 °F 50.4 °F 70% 30.09 in 10.0 mi SSE 2.3 mph - N/A   Clear
10:58 PM 64.2 °F 48.4 °F 56% 30.11 in 10.0 mi West 5.8 mph - N/A   Clear
11:58 PM 62.6 °F 50.0 °F 63% 30.11 in 10.0 mi West 3.5 mph - N/A   Clear